Time,TemperatureF,DewpointF,PressureIn,WindDirection,WindDirectionDegrees,WindSpeedMPH,WindSpeedGustMPH,Humidity,HourlyPrecipIn,Conditions,Clouds,dailyrainin,SolarRadiationWatts/m^2,SoftwareType,DateUTC
2013-03-03 00:00:00,32.8,24.1,29.58,NW,310,5.0,6.0,70,0.00,,OVC021,0.00,0.00,VWS V14.01,2013-03-03 05:00:00,
2013-03-03 00:05:00,32.7,24.0,29.58,NW,313,6.0,10.0,70,0.00,,OVC021,0.00,0.00,VWS V14.01,2013-03-03 05:05:00,
2013-03-03 00:10:00,32.7,24.0,29.58,NW,321,4.0,7.0,70,0.00,,OVC021,0.00,0.00,VWS V14.01,2013-03-03 05:10:00,
2013-03-03 00:15:00,32.6,23.9,29.58,NW,311,5.0,11.0,70,0.00,,OVC021,0.00,0.00,VWS V14.01,2013-03-03 05:15:00,
2013-03-03 00:20:00,32.5,24.2,29.58,NNW,327,5.0,9.0,71,0.00,,OVC021,0.00,0.00,VWS V14.01,2013-03-03 05:20:00,
2013-03-03 00:25:00,32.5,24.2,29.58,NW,313,3.0,7.0,71,0.00,,OVC021,0.00,0.00,VWS V14.01,2013-03-03 05:25:00,
2013-03-03 00:30:00,32.4,24.1,29.58,NNW,338,3.0,7.0,71,0.00,,OVC021,0.00,0.00,VWS V14.01,2013-03-03 05:30:00,
2013-03-03 00:35:00,32.4,24.1,29.58,NW,323,4.0,7.0,71,0.00,,OVC021,0.00,0.00,VWS V14.01,2013-03-03 05:35:00,
2013-03-03 00:40:00,32.4,24.1,29.58,NW,324,5.0,6.0,71,0.00,,OVC021,0.00,0.00,VWS V14.01,2013-03-03 05:40:00,
2013-03-03 00:45:00,32.3,24.0,29.58,WNW,296,4.0,8.0,71,0.00,,OVC021,0.00,0.00,VWS V14.01,2013-03-03 05:45:00,
2013-03-03 00:50:00,32.3,24.0,29.58,NW,320,7.0,8.0,71,0.00,,OVC021,0.00,0.00,VWS V14.01,2013-03-03 05:50:00,
2013-03-03 00:55:00,32.3,24.0,29.58,WNW,293,6.0,7.0,71,0.00,,OVC021,0.00,0.00,VWS V14.01,2013-03-03 05:55:00,
2013-03-03 01:00:00,32.3,24.3,29.58,WNW,286,4.0,8.0,72,0.00,,OVC021,0.00,0.00,VWS V14.01,2013-03-03 06:00:00,
2013-03-03 01:05:00,32.2,23.9,29.58,WNW,303,5.0,9.0,71,0.00,,OVC021,0.00,0.00,VWS V14.01,2013-03-03 06:05:00,
2013-03-03 01:10:00,32.2,24.2,29.58,NW,304,4.0,9.0,72,0.00,,OVC021,0.00,0.00,VWS V14.01,2013-03-03 06:10:00,
2013-03-03 01:15:00,32.2,24.2,29.58,NW,316,3.0,6.0,72,0.00,,OVC021,0.00,0.00,VWS V14.01,2013-03-03 06:15:00,
2013-03-03 01:20:00,32.1,24.1,29.58,North,355,6.0,8.0,72,0.00,,OVC021,0.00,0.00,VWS V14.01,2013-03-03 06:20:00,
2013-03-03 01:25:00,32.1,24.1,29.58,NW,312,4.0,7.0,72,0.00,,OVC021,0.00,0.00,VWS V14.01,2013-03-03 06:25:00,
2013-03-03 01:30:00,32.1,24.1,29.58,WNW,290,4.0,6.0,72,0.00,,OVC021,0.00,0.00,VWS V14.01,2013-03-03 06:30:00,
2013-03-03 01:35:00,32.1,24.1,29.57,NW,309,6.0,8.0,72,0.00,,OVC021,0.00,0.00,VWS V14.01,2013-03-03 06:35:00,
2013-03-03 01:40:00,32.0,24.0,29.57,WNW,288,2.0,7.0,72,0.00,,OVC021,0.00,0.00,VWS V14.01,2013-03-03 06:40:00,
2013-03-03 01:45:00,32.0,24.0,29.57,NW,314,3.0,8.0,72,0.00,,OVC021,0.00,0.00,VWS V14.01,2013-03-03 06:45:00,
2013-03-03 01:50:00,32.0,24.3,29.57,WNW,298,2.0,6.0,73,0.00,,OVC021,0.00,0.00,VWS V14.01,2013-03-03 06:50:00,
2013-03-03 01:55:00,32.0,24.3,29.57,NW,306,1.0,6.0,73,0.00,,OVC021,0.00,0.00,VWS V14.01,2013-03-03 06:55:00,
2013-03-03 02:00:00,32.0,24.3,29.57,WNW,293,3.0,5.0,73,0.00,,OVC021,0.00,0.00,VWS V14.01,2013-03-03 07:00:00,
2013-03-03 02:05:00,32.0,24.3,29.57,NW,306,3.0,5.0,73,0.00,,OVC021,0.00,0.00,VWS V14.01,2013-03-03 07:05:00,
2013-03-03 02:10:00,31.9,24.2,29.57,NW,306,1.0,4.0,73,0.00,,OVC021,0.00,0.00,VWS V14.01,2013-03-03 07:10:00,
2013-03-03 02:15:00,31.9,24.2,29.57,WNW,299,6.0,6.0,73,0.00,,OVC021,0.00,0.00,VWS V14.01,2013-03-03 07:15:00,
2013-03-03 02:20:00,31.9,24.2,29.57,NW,325,4.0,7.0,73,0.00,,OVC021,0.00,0.00,VWS V14.01,2013-03-03 07:20:00,
2013-03-03 02:25:00,31.8,24.5,29.57,NNW,340,1.0,5.0,74,0.00,,OVC021,0.00,0.00,VWS V14.01,2013-03-03 07:25:00,
2013-03-03 02:30:00,31.8,24.5,29.56,West,277,3.0,5.0,74,0.00,,OVC021,0.00,0.00,VWS V14.01,2013-03-03 07:30:00,
2013-03-03 02:35:00,31.8,24.5,29.56,NW,304,5.0,5.0,74,0.00,,OVC021,0.00,0.00,VWS V14.01,2013-03-03 07:35:00,
2013-03-03 02:40:00,31.8,24.1,29.56,WNW,301,4.0,7.0,73,0.00,,OVC021,0.00,0.00,VWS V14.01,2013-03-03 07:40:00,
2013-03-03 02:45:00,31.8,24.1,29.56,NW,317,5.0,7.0,73,0.00,,OVC021,0.00,0.00,VWS V14.01,2013-03-03 07:45:00,
2013-03-03 02:50:00,31.7,24.0,29.56,NW,310,2.0,7.0,73,0.00,,OVC021,0.00,0.00,VWS V14.01,2013-03-03 07:50:00,
2013-03-03 02:55:00,31.7,24.0,29.56,NW,325,3.0,5.0,73,0.00,,OVC021,0.00,0.00,VWS V14.01,2013-03-03 07:55:00,
2013-03-03 03:00:00,31.7,24.4,29.56,NW,317,3.0,6.0,74,0.00,,OVC021,0.00,0.00,VWS V14.01,2013-03-03 08:00:00,
2013-03-03 03:05:00,31.7,24.4,29.56,NNW,327,2.0,5.0,74,0.00,,OVC021,0.00,0.00,VWS V14.01,2013-03-03 08:05:00,
2013-03-03 03:10:00,31.7,24.4,29.56,NW,311,4.0,6.0,74,0.00,,OVC021,0.00,0.00,VWS V14.01,2013-03-03 08:10:00,
2013-03-03 03:15:00,31.7,24.4,29.56,NW,323,6.0,6.0,74,0.00,,OVC021,0.00,0.00,VWS V14.01,2013-03-03 08:15:00,
2013-03-03 03:20:00,31.7,24.4,29.56,WNW,302,4.0,6.0,74,0.00,,OVC021,0.00,0.00,VWS V14.01,2013-03-03 08:20:00,
2013-03-03 03:25:00,31.7,24.4,29.56,NW,311,3.0,6.0,74,0.00,,OVC021,0.00,0.00,VWS V14.01,2013-03-03 08:25:00,
2013-03-03 03:30:00,31.6,24.3,29.56,WNW,301,4.0,5.0,74,0.00,,OVC021,0.00,0.00,VWS V14.01,2013-03-03 08:30:00,
2013-03-03 03:35:00,31.6,24.3,29.56,NNW,329,3.0,6.0,74,0.00,,OVC021,0.00,0.00,VWS V14.01,2013-03-03 08:35:00,
2013-03-03 03:40:00,31.6,24.3,29.56,WNW,297,3.0,6.0,74,0.00,,OVC021,0.00,0.00,VWS V14.01,2013-03-03 08:40:00,
2013-03-03 03:45:00,31.6,24.3,29.55,NW,305,7.0,8.0,74,0.00,,OVC021,0.00,0.00,VWS V14.01,2013-03-03 08:45:00,
2013-03-03 03:50:00,31.6,24.3,29.56,NW,321,3.0,8.0,74,0.00,,OVC021,0.00,0.00,VWS V14.01,2013-03-03 08:50:00,
2013-03-03 03:55:00,31.5,24.2,29.56,NW,312,4.0,6.0,74,0.00,,OVC021,0.00,0.00,VWS V14.01,2013-03-03 08:55:00,
2013-03-03 04:00:00,31.5,24.2,29.56,NW,305,4.0,5.0,74,0.00,,OVC021,0.00,0.00,VWS V14.01,2013-03-03 09:00:00,
2013-03-03 04:05:00,31.4,23.8,29.56,NW,317,3.0,5.0,73,0.00,,OVC021,0.00,0.00,VWS V14.01,2013-03-03 09:05:00,
2013-03-03 04:10:00,31.4,24.1,29.56,WNW,301,3.0,6.0,74,0.00,,OVC021,0.00,0.00,VWS V14.01,2013-03-03 09:10:00,
2013-03-03 04:15:00,31.4,24.1,29.56,NNW,329,4.0,5.0,74,0.00,,OVC021,0.00,0.00,VWS V14.01,2013-03-03 09:15:00,
2013-03-03 04:20:00,31.4,23.8,29.56,NW,310,3.0,5.0,73,0.00,,OVC021,0.00,0.00,VWS V14.01,2013-03-03 09:20:00,
2013-03-03 04:25:00,31.4,24.1,29.56,NNW,330,1.0,3.0,74,0.00,,OVC021,0.00,0.00,VWS V14.01,2013-03-03 09:25:00,
2013-03-03 04:30:00,31.4,24.1,29.56,NW,325,5.0,9.0,74,0.00,,OVC021,0.00,0.00,VWS V14.01,2013-03-03 09:30:00,
2013-03-03 04:35:00,31.4,24.1,29.56,NW,317,4.0,5.0,74,0.00,,OVC021,0.00,0.00,VWS V14.01,2013-03-03 09:35:00,
2013-03-03 04:40:00,31.4,23.8,29.56,NW,315,3.0,5.0,73,0.00,,OVC021,0.00,0.00,VWS V14.01,2013-03-03 09:40:00,
2013-03-03 04:45:00,31.4,23.8,29.56,NNW,343,3.0,6.0,73,0.00,,OVC021,0.00,0.00,VWS V14.01,2013-03-03 09:45:00,
2013-03-03 04:50:00,31.3,24.0,29.56,NW,307,3.0,7.0,74,0.00,,OVC021,0.00,0.00,VWS V14.01,2013-03-03 09:50:00,
2013-03-03 04:55:00,31.3,24.0,29.56,NW,304,5.0,6.0,74,0.00,,OVC021,0.00,0.00,VWS V14.01,2013-03-03 09:55:00,
2013-03-03 05:00:00,31.3,23.7,29.56,NW,314,4.0,6.0,73,0.00,,OVC021,0.00,0.00,VWS V14.01,2013-03-03 10:00:00,
2013-03-03 05:05:00,31.3,23.7,29.56,NW,319,5.0,5.0,73,0.00,,OVC021,0.00,0.00,VWS V14.01,2013-03-03 10:05:00,
2013-03-03 05:10:00,31.2,23.9,29.56,NNW,342,4.0,7.0,74,0.00,,OVC021,0.00,0.00,VWS V14.01,2013-03-03 10:10:00,
2013-03-03 05:15:00,31.2,23.6,29.56,NW,307,8.0,9.0,73,0.00,,OVC021,0.00,0.00,VWS V14.01,2013-03-03 10:15:00,
2013-03-03 05:20:00,31.2,23.9,29.56,North,5,5.0,8.0,74,0.00,,OVC021,0.00,0.00,VWS V14.01,2013-03-03 10:20:00,
2013-03-03 05:25:00,31.1,23.8,29.56,NW,306,4.0,8.0,74,0.00,,OVC021,0.00,0.00,VWS V14.01,2013-03-03 10:25:00,
2013-03-03 05:30:00,31.1,23.8,29.56,WNW,302,4.0,8.0,74,0.00,,OVC021,0.00,0.00,VWS V14.01,2013-03-03 10:30:00,
2013-03-03 05:35:00,31.1,23.8,29.56,NW,325,3.0,6.0,74,0.00,,OVC021,0.00,0.00,VWS V14.01,2013-03-03 10:35:00,
2013-03-03 05:40:00,31.0,23.7,29.56,NW,315,5.0,11.0,74,0.00,,OVC021,0.00,0.00,VWS V14.01,2013-03-03 10:40:00,
2013-03-03 05:45:00,31.0,23.7,29.56,NW,309,3.0,5.0,74,0.00,,OVC021,0.00,0.00,VWS V14.01,2013-03-03 10:45:00,
2013-03-03 05:50:00,31.0,23.7,29.56,NW,319,3.0,6.0,74,0.00,,OVC021,0.00,0.00,VWS V14.01,2013-03-03 10:50:00,
2013-03-03 05:55:00,31.0,24.0,29.56,NNW,333,6.0,8.0,75,0.00,,OVC021,0.00,0.00,VWS V14.01,2013-03-03 10:55:00,
2013-03-03 06:00:00,31.0,24.0,29.56,NW,315,6.0,8.0,75,0.00,,OVC021,0.00,0.00,VWS V14.01,2013-03-03 11:00:00,
2013-03-03 06:05:00,30.9,24.2,29.56,NNW,336,5.0,8.0,76,0.00,,OVC021,0.00,0.00,VWS V14.01,2013-03-03 11:05:00,
2013-03-03 06:10:00,30.7,24.0,29.56,NNW,336,2.0,10.0,76,0.00,,OVC021,0.00,0.00,VWS V14.01,2013-03-03 11:10:00,
2013-03-03 06:15:00,30.6,24.0,29.56,NW,325,5.0,6.0,76,0.00,,OVC021,0.00,0.00,VWS V14.01,2013-03-03 11:15:00,
2013-03-03 06:20:00,30.5,24.2,29.56,NNW,346,4.0,6.0,77,0.00,,OVC021,0.00,0.00,VWS V14.01,2013-03-03 11:20:00,
2013-03-03 06:25:00,30.5,24.2,29.56,NW,323,2.0,5.0,77,0.00,,OVC021,0.00,5.00,VWS V14.01,2013-03-03 11:25:00,
2013-03-03 06:30:00,30.5,24.2,29.57,NW,316,2.0,6.0,77,0.00,,OVC021,0.00,7.00,VWS V14.01,2013-03-03 11:30:00,
2013-03-03 06:35:00,30.4,24.1,29.57,NW,311,7.0,8.0,77,0.00,,OVC021,0.00,11.00,VWS V14.01,2013-03-03 11:35:00,
2013-03-03 06:40:00,30.4,24.1,29.57,NW,306,2.0,9.0,77,0.00,,OVC021,0.00,12.00,VWS V14.01,2013-03-03 11:40:00,
2013-03-03 06:45:00,30.3,24.3,29.57,NNW,333,2.0,7.0,78,0.00,,OVC021,0.00,11.00,VWS V14.01,2013-03-03 11:45:00,
2013-03-03 06:50:00,30.3,24.3,29.57,NW,323,3.0,7.0,78,0.00,,OVC021,0.00,14.00,VWS V14.01,2013-03-03 11:50:00,
2013-03-03 06:55:00,30.3,24.3,29.57,WNW,285,10.0,10.0,78,0.00,,OVC021,0.00,16.00,VWS V14.01,2013-03-03 11:55:00,
2013-03-03 07:00:00,30.2,24.2,29.57,WNW,288,3.0,10.0,78,0.00,,OVC021,0.00,21.00,VWS V14.01,2013-03-03 12:00:00,
2013-03-03 07:05:00,30.2,24.2,29.57,NW,322,5.0,7.0,78,0.00,,OVC021,0.00,26.00,VWS V14.01,2013-03-03 12:05:00,
2013-03-03 07:10:00,30.1,24.4,29.57,NW,309,4.0,8.0,79,0.00,,OVC021,0.00,32.00,VWS V14.01,2013-03-03 12:10:00,
2013-03-03 07:15:00,30.1,24.4,29.57,NNW,343,8.0,9.0,79,0.00,,OVC021,0.00,42.00,VWS V14.01,2013-03-03 12:15:00,
2013-03-03 07:20:00,30.1,24.4,29.57,WNW,302,3.0,10.0,79,0.00,,OVC021,0.00,51.00,VWS V14.01,2013-03-03 12:20:00,
2013-03-03 07:25:00,30.1,24.1,29.57,NW,308,6.0,10.0,78,0.00,,OVC021,0.00,70.00,VWS V14.01,2013-03-03 12:25:00,
2013-03-03 07:30:00,30.1,24.1,29.57,NW,317,8.0,11.0,78,0.00,,OVC021,0.00,88.00,VWS V14.01,2013-03-03 12:30:00,
2013-03-03 07:35:00,30.1,24.1,29.57,NNW,328,3.0,9.0,78,0.00,,OVC021,0.00,97.00,VWS V14.01,2013-03-03 12:35:00,
2013-03-03 07:40:00,30.3,24.3,29.57,NW,311,3.0,8.0,78,0.00,,OVC021,0.00,93.00,VWS V14.01,2013-03-03 12:40:00,
2013-03-03 07:45:00,30.3,24.3,29.57,NW,319,2.0,8.0,78,0.00,,OVC021,0.00,102.00,VWS V14.01,2013-03-03 12:45:00,
2013-03-03 07:50:00,30.5,24.5,29.57,NNW,340,5.0,6.0,78,0.00,,OVC021,0.00,111.00,VWS V14.01,2013-03-03 12:50:00,
2013-03-03 07:55:00,30.6,24.6,29.57,NW,317,8.0,9.0,78,0.00,,OVC021,0.00,121.00,VWS V14.01,2013-03-03 12:55:00,
2013-03-03 08:00:00,30.6,24.6,29.57,NNW,333,3.0,8.0,78,0.00,,OVC021,0.00,134.00,VWS V14.01,2013-03-03 13:00:00,
2013-03-03 08:05:00,30.6,24.6,29.57,NW,319,6.0,7.0,78,0.00,,OVC021,0.00,151.00,VWS V14.01,2013-03-03 13:05:00,
2013-03-03 08:10:00,30.6,24.9,29.57,North,5,4.0,7.0,79,0.00,,OVC021,0.00,163.00,VWS V14.01,2013-03-03 13:10:00,
2013-03-03 08:15:00,30.6,24.9,29.57,NW,318,10.0,11.0,79,0.00,,OVC021,0.00,176.00,VWS V14.01,2013-03-03 13:15:00,
2013-03-03 08:20:00,30.4,25.0,29.57,NW,321,7.0,11.0,80,0.00,,OVC021,0.00,199.00,VWS V14.01,2013-03-03 13:20:00,
2013-03-03 08:25:00,30.4,25.0,29.57,NW,311,3.0,10.0,80,0.00,,OVC021,0.00,211.00,VWS V14.01,2013-03-03 13:25:00,
2013-03-03 08:30:00,30.5,25.1,29.57,NW,321,6.0,11.0,80,0.00,,OVC021,0.00,216.00,VWS V14.01,2013-03-03 13:30:00,
2013-03-03 08:35:00,30.5,25.4,29.57,WNW,302,2.0,11.0,81,0.00,,OVC021,0.00,239.00,VWS V14.01,2013-03-03 13:35:00,
2013-03-03 08:40:00,30.8,26.0,29.57,NNW,331,6.0,7.0,82,0.00,,OVC021,0.00,267.00,VWS V14.01,2013-03-03 13:40:00,
2013-03-03 08:45:00,31.2,26.4,29.57,NNW,331,4.0,6.0,82,0.00,,OVC021,0.00,318.00,VWS V14.01,2013-03-03 13:45:00,
2013-03-03 08:50:00,31.2,26.1,29.57,NNW,327,6.0,9.0,81,0.00,,OVC021,0.00,371.00,VWS V14.01,2013-03-03 13:50:00,
2013-03-03 08:55:00,31.3,26.2,29.57,WNW,300,7.0,10.0,81,0.00,,OVC021,0.00,299.00,VWS V14.01,2013-03-03 13:55:00,
2013-03-03 09:00:00,31.4,26.2,29.57,NW,322,4.0,7.0,81,0.00,,OVC021,0.00,345.00,VWS V14.01,2013-03-03 14:00:00,
2013-03-03 09:05:00,31.6,26.8,29.57,North,350,3.0,7.0,82,0.00,,OVC021,0.00,297.00,VWS V14.01,2013-03-03 14:05:00,
2013-03-03 09:10:00,31.8,26.6,29.57,NNE,23,7.0,8.0,81,0.00,,OVC021,0.00,320.00,VWS V14.01,2013-03-03 14:10:00,
2013-03-03 09:15:00,31.8,26.6,29.56,NNW,342,4.0,9.0,81,0.00,,OVC021,0.00,327.00,VWS V14.01,2013-03-03 14:15:00,
2013-03-03 09:20:00,31.8,26.6,29.57,NW,313,2.0,9.0,81,0.00,,OVC021,0.00,330.00,VWS V14.01,2013-03-03 14:20:00,
2013-03-03 09:25:00,31.8,26.6,29.57,WNW,297,6.0,10.0,81,0.00,,OVC021,0.00,341.00,VWS V14.01,2013-03-03 14:25:00,
2013-03-03 09:30:00,31.7,26.5,29.56,NW,312,4.0,8.0,81,0.00,,OVC021,0.00,323.00,VWS V14.01,2013-03-03 14:30:00,
2013-03-03 09:35:00,32.1,26.9,29.56,West,279,4.0,7.0,81,0.00,,OVC021,0.00,336.00,VWS V14.01,2013-03-03 14:35:00,
2013-03-03 09:40:00,32.3,26.8,29.56,NW,315,7.0,7.0,80,0.00,,OVC021,0.00,327.00,VWS V14.01,2013-03-03 14:40:00,
2013-03-03 09:45:00,32.4,26.9,29.56,NW,317,3.0,8.0,80,0.00,,OVC021,0.00,445.00,VWS V14.01,2013-03-03 14:45:00,
2013-03-03 09:50:00,32.7,26.9,29.56,WNW,290,6.0,11.0,79,0.00,,OVC021,0.00,438.00,VWS V14.01,2013-03-03 14:50:00,
2013-03-03 09:55:00,32.8,27.0,29.56,NW,319,8.0,10.0,79,0.00,,OVC021,0.00,403.00,VWS V14.01,2013-03-03 14:55:00,
2013-03-03 10:00:00,32.7,27.2,29.55,NW,307,6.0,11.0,80,0.00,,OVC021,0.00,369.00,VWS V14.01,2013-03-03 15:00:00,
2013-03-03 10:05:00,32.7,27.2,29.55,WNW,296,7.0,9.0,80,0.00,,OVC021,0.00,352.00,VWS V14.01,2013-03-03 15:05:00,
2013-03-03 10:10:00,32.8,27.6,29.55,NNW,330,7.0,8.0,81,0.00,,OVC021,0.00,399.00,VWS V14.01,2013-03-03 15:10:00,
2013-03-03 10:15:00,33.0,27.8,29.55,NNW,345,7.0,9.0,81,0.00,,OVC021,0.00,404.00,VWS V14.01,2013-03-03 15:15:00,
2013-03-03 10:20:00,33.2,28.0,29.55,NNW,337,5.0,9.0,81,0.00,,OVC021,0.00,411.00,VWS V14.01,2013-03-03 15:20:00,
2013-03-03 10:25:00,33.1,27.6,29.55,NW,305,7.0,8.0,80,0.00,,OVC021,0.00,357.00,VWS V14.01,2013-03-03 15:25:00,
2013-03-03 10:30:00,33.3,28.1,29.55,North,350,8.0,8.0,81,0.00,,OVC021,0.00,504.00,VWS V14.01,2013-03-03 15:30:00,
2013-03-03 10:35:00,33.3,28.1,29.55,North,350,3.0,9.0,81,0.00,,OVC021,0.00,378.00,VWS V14.01,2013-03-03 15:35:00,
2013-03-03 10:40:00,33.4,28.2,29.55,NW,320,8.0,9.0,81,0.00,,OVC021,0.00,290.00,VWS V14.01,2013-03-03 15:40:00,
2013-03-03 10:45:00,33.0,27.5,29.55,NW,314,7.0,9.0,80,0.00,,OVC021,0.00,339.00,VWS V14.01,2013-03-03 15:45:00,
2013-03-03 10:50:00,32.9,27.7,29.55,NW,320,2.0,8.0,81,0.00,,OVC021,0.00,332.00,VWS V14.01,2013-03-03 15:50:00,
2013-03-03 10:55:00,33.0,28.1,29.55,NW,325,4.0,7.0,82,0.00,,OVC021,0.00,339.00,VWS V14.01,2013-03-03 15:55:00,
2013-03-03 11:00:00,33.3,28.4,29.55,NW,325,6.0,8.0,82,0.00,,OVC021,0.00,330.00,VWS V14.01,2013-03-03 16:00:00,
2013-03-03 11:05:00,32.9,28.0,29.55,NW,320,6.0,8.0,82,0.00,,OVC021,0.00,323.00,VWS V14.01,2013-03-03 16:05:00,
2013-03-03 11:10:00,33.2,28.3,29.55,NW,309,0.0,6.0,82,0.00,,OVC021,0.00,476.00,VWS V14.01,2013-03-03 16:10:00,
2013-03-03 11:15:00,33.4,28.5,29.54,NNW,340,7.0,7.0,82,0.00,,OVC021,0.00,278.00,VWS V14.01,2013-03-03 16:15:00,
2013-03-03 11:20:00,33.4,28.5,29.54,WNW,297,8.0,10.0,82,0.00,,OVC021,0.00,411.00,VWS V14.01,2013-03-03 16:20:00,
2013-03-03 11:25:00,33.7,28.8,29.54,NW,304,2.0,9.0,82,0.00,,OVC021,0.00,401.00,VWS V14.01,2013-03-03 16:25:00,
2013-03-03 11:30:00,34.4,29.5,29.54,West,273,6.0,8.0,82,0.00,,OVC021,0.00,729.00,VWS V14.01,2013-03-03 16:30:00,
2013-03-03 11:35:00,34.9,29.4,29.54,NW,323,5.0,10.0,80,0.00,,OVC021,0.00,798.00,VWS V14.01,2013-03-03 16:35:00,
2013-03-03 11:40:00,35.2,29.4,29.54,NW,313,6.0,8.0,79,0.00,,OVC021,0.00,490.00,VWS V14.01,2013-03-03 16:40:00,
2013-03-03 11:45:00,35.1,28.9,29.54,WNW,284,8.0,11.0,78,0.00,,OVC021,0.00,341.00,VWS V14.01,2013-03-03 16:45:00,
2013-03-03 11:50:00,35.0,29.2,29.54,WNW,284,4.0,8.0,79,0.00,,OVC021,0.00,459.00,VWS V14.01,2013-03-03 16:50:00,
2013-03-03 11:55:00,35.5,29.6,29.53,NW,304,3.0,7.0,79,0.00,,OVC021,0.00,304.00,VWS V14.01,2013-03-03 16:55:00,
2013-03-03 12:00:00,35.5,29.3,29.53,NNW,331,5.0,9.0,78,0.00,,OVC021,0.00,325.00,VWS V14.01,2013-03-03 17:00:00,
2013-03-03 12:05:00,35.5,29.3,29.53,NNW,348,2.0,8.0,78,0.00,,OVC021,0.00,311.00,VWS V14.01,2013-03-03 17:05:00,
2013-03-03 12:10:00,35.9,29.4,29.53,North,350,5.0,7.0,77,0.00,,OVC021,0.00,302.00,VWS V14.01,2013-03-03 17:10:00,
2013-03-03 12:15:00,36.0,29.5,29.53,NNW,327,1.0,5.0,77,0.00,,OVC021,0.00,352.00,VWS V14.01,2013-03-03 17:15:00,
2013-03-03 12:20:00,36.3,29.5,29.52,North,360,2.0,6.0,76,0.00,,OVC021,0.00,338.00,VWS V14.01,2013-03-03 17:20:00,
2013-03-03 12:25:00,36.5,29.7,29.52,NW,321,4.0,7.0,76,0.00,,OVC021,0.00,336.00,VWS V14.01,2013-03-03 17:25:00,
2013-03-03 12:30:00,36.6,29.4,29.52,NNE,19,4.0,8.0,75,0.00,,OVC021,0.00,308.00,VWS V14.01,2013-03-03 17:30:00,
2013-03-03 12:35:00,36.8,29.3,29.52,North,355,4.0,7.0,74,0.00,,OVC021,0.00,294.00,VWS V14.01,2013-03-03 17:35:00,
2013-03-03 12:40:00,36.4,28.9,29.52,North,351,4.0,9.0,74,0.00,,OVC021,0.00,269.00,VWS V14.01,2013-03-03 17:40:00,
2013-03-03 12:45:00,36.6,29.1,29.52,NW,315,6.0,8.0,74,0.00,,OVC021,0.00,265.00,VWS V14.01,2013-03-03 17:45:00,
2013-03-03 12:50:00,36.6,29.4,29.52,NNW,340,5.0,9.0,75,0.00,,OVC021,0.00,276.00,VWS V14.01,2013-03-03 17:50:00,
2013-03-03 12:55:00,36.6,29.1,29.52,NW,308,8.0,8.0,74,0.00,,OVC021,0.00,294.00,VWS V14.01,2013-03-03 17:55:00,
2013-03-03 13:00:00,36.6,29.1,29.51,NNW,337,8.0,10.0,74,0.00,,OVC021,0.00,294.00,VWS V14.01,2013-03-03 18:00:00,
2013-03-03 13:05:00,36.8,29.3,29.51,North,360,3.0,9.0,74,0.00,,OVC021,0.00,281.00,VWS V14.01,2013-03-03 18:05:00,
2013-03-03 13:10:00,36.9,29.1,29.51,North,360,4.0,9.0,73,0.00,,OVC021,0.00,271.00,VWS V14.01,2013-03-03 18:10:00,
2013-03-03 13:15:00,36.9,29.4,29.51,West,277,3.0,9.0,74,0.00,,OVC021,0.00,260.00,VWS V14.01,2013-03-03 18:15:00,
2013-03-03 13:20:00,37.2,29.4,29.51,NW,315,4.0,8.0,73,0.00,,OVC021,0.00,290.00,VWS V14.01,2013-03-03 18:20:00,
2013-03-03 13:25:00,37.6,29.7,29.51,NW,313,2.0,5.0,73,0.00,,OVC021,0.00,304.00,VWS V14.01,2013-03-03 18:25:00,
2013-03-03 13:30:00,37.5,29.3,29.51,NW,321,6.0,8.0,72,0.00,,OVC021,0.00,288.00,VWS V14.01,2013-03-03 18:30:00,
2013-03-03 13:35:00,37.6,29.4,29.50,WNW,296,4.0,8.0,72,0.00,,OVC021,0.00,288.00,VWS V14.01,2013-03-03 18:35:00,
2013-03-03 13:40:00,37.7,29.5,29.51,NNW,337,4.0,8.0,72,0.00,,OVC021,0.00,287.00,VWS V14.01,2013-03-03 18:40:00,
2013-03-03 13:45:00,37.9,29.4,29.51,NW,325,3.0,10.0,71,0.00,,OVC021,0.00,271.00,VWS V14.01,2013-03-03 18:45:00,
2013-03-03 13:50:00,37.8,29.3,29.50,NW,304,5.0,10.0,71,0.00,,OVC021,0.00,260.00,VWS V14.01,2013-03-03 18:50:00,
2013-03-03 13:55:00,37.9,29.7,29.50,WNW,300,4.0,8.0,72,0.00,,OVC021,0.00,258.00,VWS V14.01,2013-03-03 18:55:00,
2013-03-03 14:00:00,38.1,29.5,29.50,North,349,4.0,9.0,71,0.00,,OVC021,0.00,297.00,VWS V14.01,2013-03-03 19:00:00,
2013-03-03 14:05:00,38.1,29.9,29.50,NNW,327,4.0,9.0,72,0.00,,OVC021,0.00,257.00,VWS V14.01,2013-03-03 19:05:00,
2013-03-03 14:10:00,38.2,29.6,29.50,West,275,4.0,9.0,71,0.00,,OVC021,0.00,237.00,VWS V14.01,2013-03-03 19:10:00,
2013-03-03 14:15:00,37.9,29.4,29.50,NW,311,5.0,11.0,71,0.00,,OVC021,0.00,237.00,VWS V14.01,2013-03-03 19:15:00,
2013-03-03 14:20:00,37.8,29.6,29.50,NNW,331,4.0,7.0,72,0.00,,OVC021,0.00,227.00,VWS V14.01,2013-03-03 19:20:00,
2013-03-03 14:25:00,38.0,30.1,29.50,WNW,302,5.0,8.0,73,0.00,,OVC021,0.00,237.00,VWS V14.01,2013-03-03 19:25:00,
2013-03-03 14:30:00,38.0,30.1,29.50,NNW,333,6.0,9.0,73,0.00,,OVC021,0.00,246.00,VWS V14.01,2013-03-03 19:30:00,
2013-03-03 14:35:00,38.0,30.1,29.50,WNW,296,4.0,9.0,73,0.00,,OVC021,0.00,220.00,VWS V14.01,2013-03-03 19:35:00,
2013-03-03 14:40:00,38.0,30.1,29.50,NW,311,4.0,8.0,73,0.00,,OVC021,0.00,232.00,VWS V14.01,2013-03-03 19:40:00,
2013-03-03 14:45:00,37.8,29.6,29.50,WNW,286,4.0,9.0,72,0.00,,OVC021,0.00,290.00,VWS V14.01,2013-03-03 19:45:00,
2013-03-03 14:50:00,38.1,30.2,29.50,West,281,8.0,8.0,73,0.00,,OVC021,0.00,243.00,VWS V14.01,2013-03-03 19:50:00,
2013-03-03 14:55:00,37.7,29.8,29.50,NW,309,8.0,11.0,73,0.00,,OVC021,0.00,162.00,VWS V14.01,2013-03-03 19:55:00,
2013-03-03 15:00:00,37.2,30.0,29.51,NW,307,4.0,9.0,75,0.00,,OVC021,0.00,130.00,VWS V14.01,2013-03-03 20:00:00,
2013-03-03 15:05:00,37.0,30.5,29.50,WNW,300,3.0,10.0,77,0.00,,OVC021,0.00,137.00,VWS V14.01,2013-03-03 20:05:00,
2013-03-03 15:10:00,37.1,30.9,29.50,NW,321,3.0,7.0,78,0.00,,OVC021,0.00,141.00,VWS V14.01,2013-03-03 20:10:00,
2013-03-03 15:15:00,36.9,30.7,29.50,West,279,6.0,9.0,78,0.00,,OVC021,0.00,146.00,VWS V14.01,2013-03-03 20:15:00,
2013-03-03 15:20:00,36.7,30.8,29.50,West,280,5.0,8.0,79,0.00,,OVC021,0.00,141.00,VWS V14.01,2013-03-03 20:20:00,
2013-03-03 15:25:00,36.6,30.7,29.50,West,281,3.0,8.0,79,0.00,,OVC021,0.00,121.00,VWS V14.01,2013-03-03 20:25:00,
2013-03-03 15:30:00,36.7,30.8,29.50,West,280,7.0,8.0,79,0.00,,OVC021,0.00,113.00,VWS V14.01,2013-03-03 20:30:00,
2013-03-03 15:35:00,36.5,30.6,29.50,WSW,248,7.0,8.0,79,0.00,,OVC021,0.00,118.00,VWS V14.01,2013-03-03 20:35:00,
2013-03-03 15:40:00,36.4,30.8,29.50,West,275,4.0,8.0,80,0.00,,OVC021,0.00,116.00,VWS V14.01,2013-03-03 20:40:00,
2013-03-03 15:45:00,36.5,30.6,29.50,West,279,3.0,11.0,79,0.00,,OVC021,0.00,107.00,VWS V14.01,2013-03-03 20:45:00,
2013-03-03 15:50:00,36.7,30.5,29.50,WNW,291,3.0,9.0,78,0.00,,OVC021,0.00,102.00,VWS V14.01,2013-03-03 20:50:00,
2013-03-03 15:55:00,36.9,31.0,29.50,WSW,245,5.0,8.0,79,0.00,,OVC021,0.00,95.00,VWS V14.01,2013-03-03 20:55:00,
2013-03-03 16:00:00,36.9,31.3,29.50,West,278,2.0,7.0,80,0.00,,OVC021,0.00,84.00,VWS V14.01,2013-03-03 21:00:00,
2013-03-03 16:05:00,36.8,31.2,29.50,West,279,2.0,7.0,80,0.00,,OVC021,0.00,72.00,VWS V14.01,2013-03-03 21:05:00,
2013-03-03 16:10:00,36.6,31.3,29.50,WSW,251,4.0,7.0,81,0.00,,OVC021,0.00,70.00,VWS V14.01,2013-03-03 21:10:00,
2013-03-03 16:15:00,36.5,31.2,29.50,West,269,4.0,7.0,81,0.00,,OVC021,0.00,65.00,VWS V14.01,2013-03-03 21:15:00,
2013-03-03 16:20:00,36.3,31.0,29.51,NW,306,2.0,8.0,81,0.00,,OVC021,0.00,58.00,VWS V14.01,2013-03-03 21:20:00,
2013-03-03 16:25:00,36.3,31.3,29.50,NW,319,6.0,6.0,82,0.00,,OVC021,0.00,53.00,VWS V14.01,2013-03-03 21:25:00,
2013-03-03 16:30:00,36.2,31.2,29.50,West,267,6.0,7.0,82,0.00,,OVC021,0.00,53.00,VWS V14.01,2013-03-03 21:30:00,
2013-03-03 16:35:00,36.2,31.5,29.51,West,273,5.0,7.0,83,0.00,,OVC021,0.00,51.00,VWS V14.01,2013-03-03 21:35:00,
2013-03-03 16:40:00,36.0,31.6,29.51,WSW,257,5.0,9.0,84,0.00,,OVC021,0.00,53.00,VWS V14.01,2013-03-03 21:40:00,
2013-03-03 16:45:00,35.8,31.7,29.51,WSW,252,4.0,9.0,85,0.00,,OVC021,0.00,51.00,VWS V14.01,2013-03-03 21:45:00,
2013-03-03 16:50:00,35.7,31.6,29.51,West,262,4.0,8.0,85,0.00,,OVC021,0.00,51.00,VWS V14.01,2013-03-03 21:50:00,
2013-03-03 16:55:00,35.6,31.8,29.51,West,267,7.0,8.0,86,0.00,,OVC021,0.00,47.00,VWS V14.01,2013-03-03 21:55:00,
2013-03-03 17:00:00,35.5,31.7,29.51,WSW,253,4.0,7.0,86,0.00,,OVC021,0.00,40.00,VWS V14.01,2013-03-03 22:00:00,
2013-03-03 17:05:00,35.4,31.6,29.51,West,261,5.0,8.0,86,0.00,,OVC021,0.00,28.00,VWS V14.01,2013-03-03 22:05:00,
2013-03-03 17:10:00,35.1,31.6,29.52,West,267,7.0,10.0,87,0.00,,OVC021,0.00,19.00,VWS V14.01,2013-03-03 22:10:00,
2013-03-03 17:15:00,34.9,31.4,29.51,West,261,6.0,9.0,87,0.00,,OVC021,0.00,12.00,VWS V14.01,2013-03-03 22:15:00,
2013-03-03 17:20:00,34.7,31.2,29.51,West,265,3.0,9.0,87,0.00,,OVC021,0.00,9.00,VWS V14.01,2013-03-03 22:20:00,
2013-03-03 17:25:00,34.6,31.1,29.51,West,261,2.0,7.0,87,0.00,,OVC021,0.00,5.00,VWS V14.01,2013-03-03 22:25:00,
2013-03-03 17:30:00,34.6,31.4,29.51,WSW,238,2.0,5.0,88,0.00,,OVC021,0.00,0.00,VWS V14.01,2013-03-03 22:30:00,
2013-03-03 17:35:00,34.5,31.3,29.51,West,272,2.0,5.0,88,0.00,,OVC021,0.00,0.00,VWS V14.01,2013-03-03 22:35:00,
2013-03-03 17:40:00,34.4,31.2,29.51,SW,215,4.0,6.0,88,0.00,,OVC021,0.00,0.00,VWS V14.01,2013-03-03 22:40:00,
2013-03-03 17:45:00,34.3,31.1,29.51,WSW,257,2.0,5.0,88,0.00,,OVC021,0.00,0.00,VWS V14.01,2013-03-03 22:45:00,
2013-03-03 17:50:00,34.2,31.0,29.52,WSW,254,4.0,7.0,88,0.00,,OVC021,0.00,0.00,VWS V14.01,2013-03-03 22:50:00,
2013-03-03 17:55:00,34.0,30.8,29.52,WSW,254,1.0,6.0,88,0.00,,OVC021,0.00,0.00,VWS V14.01,2013-03-03 22:55:00,
2013-03-03 18:00:00,33.9,31.0,29.52,West,272,4.0,5.0,89,0.00,,OVC021,0.00,0.00,VWS V14.01,2013-03-03 23:00:00,
2013-03-03 18:05:00,33.9,31.0,29.52,NW,304,2.0,5.0,89,0.00,,OVC021,0.00,0.00,VWS V14.01,2013-03-03 23:05:00,
2013-03-03 18:10:00,33.8,30.9,29.52,West,273,6.0,7.0,89,0.00,,OVC021,0.00,0.00,VWS V14.01,2013-03-03 23:10:00,
2013-03-03 18:15:00,33.8,30.9,29.52,West,269,5.0,7.0,89,0.00,,OVC021,0.00,0.00,VWS V14.01,2013-03-03 23:15:00,
2013-03-03 18:20:00,33.8,30.9,29.52,West,265,7.0,10.0,89,0.00,,OVC021,0.00,0.00,VWS V14.01,2013-03-03 23:20:00,
2013-03-03 18:25:00,33.9,30.7,29.52,WNW,297,2.0,9.0,88,0.00,,OVC021,0.00,0.00,VWS V14.01,2013-03-03 23:25:00,
2013-03-03 18:30:00,34.0,30.3,29.52,WNW,295,4.0,8.0,86,0.00,,OVC021,0.00,0.00,VWS V14.01,2013-03-03 23:30:00,
2013-03-03 18:35:00,34.0,30.0,29.52,WNW,297,3.0,13.0,85,0.00,,OVC021,0.00,0.00,VWS V14.01,2013-03-03 23:35:00,
2013-03-03 18:40:00,34.0,30.0,29.53,NW,304,3.0,9.0,85,0.00,,OVC021,0.00,0.00,VWS V14.01,2013-03-03 23:40:00,
2013-03-03 18:45:00,34.0,29.7,29.53,West,276,3.0,7.0,84,0.00,,OVC021,0.00,0.00,VWS V14.01,2013-03-03 23:45:00,
2013-03-03 18:50:00,33.9,29.6,29.53,NW,309,4.0,8.0,84,0.00,,OVC021,0.00,0.00,VWS V14.01,2013-03-03 23:50:00,
2013-03-03 18:55:00,33.8,29.5,29.53,West,277,2.0,9.0,84,0.00,,OVC021,0.00,0.00,VWS V14.01,2013-03-03 23:55:00,
2013-03-03 19:00:00,33.7,29.7,29.53,WNW,300,4.0,9.0,85,0.00,,OVC021,0.00,0.00,VWS V14.01,2013-03-04 00:00:00,
2013-03-03 19:05:00,33.6,29.6,29.54,West,277,5.0,8.0,85,0.00,,OVC021,0.00,0.00,VWS V14.01,2013-03-04 00:05:00,
2013-03-03 19:10:00,33.5,29.5,29.53,West,271,5.0,10.0,85,0.00,,OVC021,0.00,0.00,VWS V14.01,2013-03-04 00:10:00,
2013-03-03 19:15:00,33.4,29.7,29.53,WNW,289,4.0,7.0,86,0.00,,OVC021,0.00,0.00,VWS V14.01,2013-03-04 00:15:00,
2013-03-03 19:20:00,33.4,29.7,29.53,West,265,4.0,8.0,86,0.00,,OVC021,0.00,0.00,VWS V14.01,2013-03-04 00:20:00,
2013-03-03 19:25:00,33.4,29.7,29.53,WNW,284,5.0,7.0,86,0.00,,OVC021,0.00,0.00,VWS V14.01,2013-03-04 00:25:00,
2013-03-03 19:30:00,33.3,29.6,29.53,WNW,288,3.0,7.0,86,0.00,,OVC021,0.00,0.00,VWS V14.01,2013-03-04 00:30:00,
2013-03-03 19:35:00,33.2,29.5,29.53,West,270,3.0,6.0,86,0.00,,OVC021,0.00,0.00,VWS V14.01,2013-03-04 00:35:00,
2013-03-03 19:40:00,33.2,29.8,29.53,West,269,3.0,9.0,87,0.00,,OVC021,0.00,0.00,VWS V14.01,2013-03-04 00:40:00,
2013-03-03 19:45:00,33.2,29.8,29.53,West,266,4.0,6.0,87,0.00,,OVC021,0.00,0.00,VWS V14.01,2013-03-04 00:45:00,
2013-03-03 19:50:00,33.1,29.7,29.53,West,265,5.0,6.0,87,0.00,,OVC021,0.00,0.00,VWS V14.01,2013-03-04 00:50:00,
2013-03-03 19:55:00,33.0,29.6,29.53,West,266,5.0,6.0,87,0.00,,OVC021,0.00,0.00,VWS V14.01,2013-03-04 00:55:00,
2013-03-03 20:00:00,33.0,29.8,29.53,WNW,296,4.0,6.0,88,0.00,,OVC021,0.00,0.00,VWS V14.01,2013-03-04 01:00:00,
2013-03-03 20:05:00,32.9,29.5,29.53,WNW,282,3.0,6.0,87,0.00,,OVC021,0.00,0.00,VWS V14.01,2013-03-04 01:05:00,
2013-03-03 20:10:00,32.8,29.6,29.53,West,275,4.0,7.0,88,0.00,,OVC021,0.00,0.00,VWS V14.01,2013-03-04 01:10:00,
2013-03-03 20:15:00,32.7,29.5,29.55,West,271,6.0,8.0,88,0.00,,OVC021,0.00,0.00,VWS V14.01,2013-03-04 01:15:00,
2013-03-03 20:20:00,32.6,29.5,29.53,WNW,284,3.0,6.0,88,0.00,,OVC021,0.00,0.00,VWS V14.01,2013-03-04 01:20:00,
2013-03-03 20:25:00,32.5,29.6,29.54,West,277,2.0,6.0,89,0.00,,OVC021,0.00,0.00,VWS V14.01,2013-03-04 01:25:00,
2013-03-03 20:30:00,32.5,29.6,29.54,WNW,283,2.0,6.0,89,0.00,,OVC021,0.00,0.00,VWS V14.01,2013-03-04 01:30:00,
2013-03-03 20:35:00,32.4,29.5,29.54,WNW,287,4.0,6.0,89,0.00,,OVC021,0.00,0.00,VWS V14.01,2013-03-04 01:35:00,
2013-03-03 20:40:00,32.4,29.5,29.54,West,279,2.0,4.0,89,0.00,,OVC021,0.00,0.00,VWS V14.01,2013-03-04 01:40:00,
2013-03-03 20:45:00,32.4,29.5,29.54,WNW,282,3.0,7.0,89,0.00,,OVC021,0.00,0.00,VWS V14.01,2013-03-04 01:45:00,
2013-03-03 20:50:00,32.4,29.5,29.54,West,261,6.0,9.0,89,0.00,,OVC021,0.00,0.00,VWS V14.01,2013-03-04 01:50:00,
2013-03-03 20:55:00,32.4,29.5,29.54,WNW,288,6.0,7.0,89,0.00,,OVC021,0.00,0.00,VWS V14.01,2013-03-04 01:55:00,
2013-03-03 21:00:00,32.5,29.4,29.54,West,277,3.0,7.0,88,0.00,,OVC021,0.00,0.00,VWS V14.01,2013-03-04 02:00:00,
2013-03-03 21:05:00,32.5,29.4,29.54,WNW,291,3.0,7.0,88,0.00,,OVC021,0.00,0.00,VWS V14.01,2013-03-04 02:05:00,
2013-03-03 21:10:00,32.7,29.0,29.54,West,279,3.0,8.0,86,0.00,,OVC021,0.00,0.00,VWS V14.01,2013-03-04 02:10:00,
2013-03-03 21:15:00,33.1,28.5,29.54,NW,320,2.0,9.0,83,0.00,,OVC021,0.00,0.00,VWS V14.01,2013-03-04 02:15:00,
2013-03-03 21:20:00,33.5,27.7,29.54,NNW,332,5.0,11.0,79,0.00,,OVC021,0.00,0.00,VWS V14.01,2013-03-04 02:20:00,
2013-03-03 21:25:00,34.1,27.3,29.54,WNW,291,6.0,16.0,76,0.00,,OVC021,0.00,0.00,VWS V14.01,2013-03-04 02:25:00,
2013-03-03 21:30:00,34.2,27.1,29.54,NNW,340,3.0,12.0,75,0.00,,OVC021,0.00,0.00,VWS V14.01,2013-03-04 02:30:00,
2013-03-03 21:35:00,34.3,27.2,29.54,NW,321,4.0,7.0,75,0.00,,OVC021,0.00,0.00,VWS V14.01,2013-03-04 02:35:00,
2013-03-03 21:40:00,34.3,27.2,29.54,WNW,302,2.0,8.0,75,0.00,,OVC021,0.00,0.00,VWS V14.01,2013-03-04 02:40:00,
2013-03-03 21:45:00,34.3,27.5,29.53,WSW,253,6.0,6.0,76,0.00,,OVC021,0.00,0.00,VWS V14.01,2013-03-04 02:45:00,
2013-03-03 21:50:00,34.2,27.1,29.53,NW,304,9.0,10.0,75,0.00,,OVC021,0.00,0.00,VWS V14.01,2013-03-04 02:50:00,
2013-03-03 21:55:00,34.2,26.8,29.53,NW,321,9.0,13.0,74,0.00,,OVC021,0.00,0.00,VWS V14.01,2013-03-04 02:55:00,
2013-03-03 22:00:00,34.2,26.5,29.53,NW,325,4.0,12.0,73,0.00,,OVC021,0.00,0.00,VWS V14.01,2013-03-04 03:00:00,
2013-03-03 22:05:00,34.2,26.5,29.53,NW,305,8.0,17.0,73,0.00,,OVC021,0.00,0.00,VWS V14.01,2013-03-04 03:05:00,
2013-03-03 22:10:00,34.1,26.4,29.53,NNW,348,6.0,11.0,73,0.00,,OVC021,0.00,0.00,VWS V14.01,2013-03-04 03:10:00,
2013-03-03 22:15:00,34.1,26.0,29.53,North,355,6.0,15.0,72,0.00,,OVC021,0.00,0.00,VWS V14.01,2013-03-04 03:15:00,
2013-03-03 22:20:00,34.1,26.0,29.53,NW,312,5.0,10.0,72,0.00,,OVC021,0.00,0.00,VWS V14.01,2013-03-04 03:20:00,
2013-03-03 22:25:00,34.1,26.0,29.53,WNW,290,9.0,13.0,72,0.00,,OVC021,0.00,0.00,VWS V14.01,2013-03-04 03:25:00,
2013-03-03 22:30:00,34.1,26.0,29.53,North,349,5.0,9.0,72,0.00,,OVC021,0.00,0.00,VWS V14.01,2013-03-04 03:30:00,
2013-03-03 22:35:00,34.1,25.7,29.53,WNW,301,8.0,12.0,71,0.00,,OVC021,0.00,0.00,VWS V14.01,2013-03-04 03:35:00,
2013-03-03 22:40:00,34.0,25.9,29.53,NW,304,6.0,8.0,72,0.00,,OVC021,0.00,0.00,VWS V14.01,2013-03-04 03:40:00,
2013-03-03 22:45:00,33.9,25.5,29.53,North,355,4.0,10.0,71,0.00,,OVC021,0.00,0.00,VWS V14.01,2013-03-04 03:45:00,
2013-03-03 22:50:00,33.9,25.5,29.53,North,355,3.0,14.0,71,0.00,,OVC021,0.00,0.00,VWS V14.01,2013-03-04 03:50:00,
2013-03-03 22:55:00,33.8,25.4,29.53,NNW,327,9.0,14.0,71,0.00,,OVC021,0.00,0.00,VWS V14.01,2013-03-04 03:55:00,
2013-03-03 23:00:00,33.8,25.4,29.53,WNW,294,6.0,9.0,71,0.00,,OVC021,0.00,0.00,VWS V14.01,2013-03-04 04:00:00,
2013-03-03 23:05:00,33.7,25.3,29.53,NW,306,4.0,9.0,71,0.00,,OVC021,0.00,0.00,VWS V14.01,2013-03-04 04:05:00,
2013-03-03 23:10:00,33.6,25.5,29.53,WNW,294,6.0,8.0,72,0.00,,OVC021,0.00,0.00,VWS V14.01,2013-03-04 04:10:00,
2013-03-03 23:15:00,33.4,25.4,29.53,NW,308,3.0,12.0,72,0.00,,OVC021,0.00,0.00,VWS V14.01,2013-03-04 04:15:00,
2013-03-03 23:20:00,33.3,25.6,29.53,WNW,293,5.0,13.0,73,0.00,,OVC021,0.00,0.00,VWS V14.01,2013-03-04 04:20:00,
2013-03-03 23:25:00,33.2,25.8,29.53,NNW,345,5.0,10.0,74,0.00,,OVC021,0.00,0.00,VWS V14.01,2013-03-04 04:25:00,
2013-03-03 23:30:00,33.1,25.7,29.53,NNW,330,6.0,10.0,74,0.00,,OVC021,0.00,0.00,VWS V14.01,2013-03-04 04:30:00,
2013-03-03 23:35:00,33.0,25.6,29.53,NW,315,8.0,15.0,74,0.00,,OVC021,0.00,0.00,VWS V14.01,2013-03-04 04:35:00,
2013-03-03 23:40:00,33.0,25.6,29.53,NW,321,7.0,13.0,74,0.00,,OVC021,0.00,0.00,VWS V14.01,2013-03-04 04:40:00,
2013-03-03 23:45:00,32.9,25.2,29.53,NW,308,6.0,13.0,73,0.00,,OVC021,0.00,0.00,VWS V14.01,2013-03-04 04:45:00,
2013-03-03 23:50:00,32.9,25.2,29.53,NW,318,4.0,14.0,73,0.00,,OVC021,0.00,0.00,VWS V14.01,2013-03-04 04:50:00,
2013-03-03 23:55:00,32.8,25.1,29.53,NW,321,6.0,9.0,73,0.00,,OVC021,0.00,0.00,VWS V14.01,2013-03-04 04:55:00,